W4FXD Weather Reports


time (UTC)temp
C
wind
direction
speed
KPH
gust
KPH
rain 1hr
cm
rain 24hr
cm
rain mn
cm
humidity
%
barometer
mb
20260509011959 16 115 0.0 0.0 0.00 0.00 0.00 60 1013.3
20260509011456 16 119 0.0 0.0 0.00 0.00 0.00 60 1013.3
20260509010954 16 93 0.0 0.0 0.00 0.00 0.00 60 1013.1
20260509010451 16 122 0.0 0.0 0.00 0.00 0.00 60 1013.3
20260509005948 16 89 0.0 0.0 0.00 0.00 0.00 59 1013.2
20260509005446 16 83 0.0 0.0 0.00 0.00 0.00 59 1013.1
20260509004946 16 86 0.0 0.0 0.00 0.00 0.00 58 1013.1
20260509004443 16 89 0.0 0.0 0.00 0.00 0.00 57 1013.3
20260509003941 16 88 0.0 0.0 0.00 0.00 0.00 56 1012.8
20260509003439 17 94 0.0 0.0 0.00 0.00 0.00 55 1013.1
20260509002935 17 94 0.0 0.0 0.00 0.00 0.00 55 1012.8
20260509002433 17 82 0.0 0.0 0.00 0.00 0.00 55 1013.0
20260509001930 17 78 0.0 0.0 0.00 0.00 0.00 55 1013.0
20260509001426 17 112 0.0 0.0 0.00 0.00 0.00 55 1013.1
20260509000923 17 105 0.0 0.0 0.00 0.00 0.00 54 1013.1
20260509000421 17 135 0.0 0.0 0.00 0.00 0.00 52 1013.1
20260508235917 17 130 0.0 0.0 0.00 0.00 0.00 54 1013.1
20260508235415 18 127 0.0 0.0 0.00 0.00 0.00 54 1013.2
20260508234911 18 126 0.0 0.0 0.00 0.00 0.00 52 1013.2
20260508234408 18 135 0.0 0.0 0.00 0.00 0.00 51 1013.4
20260508233906 18 131 0.0 0.0 0.00 0.00 0.00 52 1013.2
20260508233406 18 131 0.0 0.0 0.00 0.00 0.00 51 1013.4
20260508232902 18 131 0.0 0.0 0.00 0.00 0.00 51 1013.2
20260508232358 18 81 0.0 1.6 0.00 0.00 0.00 49 1013.1
20260508231856 19 158 0.0 1.6 0.00 0.00 0.00 52 1013.1
20260508231353 19 127 0.0 1.6 0.00 0.00 0.00 51 1013.4
20260508230849 19 153 1.6 1.6 0.00 0.00 0.00 47 1013.1
20260508230346 19 163 1.6 1.6 0.00 0.00 0.00 47 1013.1
20260508225843 20 113 0.0 1.6 0.00 0.00 0.00 49 1013.1
20260508225340 20 73 3.2 3.2 0.00 0.00 0.00 51 1013.0
20260508224838 20 175 1.6 3.2 0.00 0.00 0.00 47 1013.1
20260508224335 20 141 0.0 1.6 0.00 0.00 0.00 47 1013.2
20260508223833 20 139 0.0 0.0 0.00 0.00 0.00 46 1013.3
20260508223330 20 133 0.0 0.0 0.00 0.00 0.00 44 1013.5
20260508222827 20 184 4.8 4.8 0.00 0.00 0.00 44 1013.5
20260508222324 20 175 1.6 1.6 0.00 0.00 0.00 45 1013.3
20260508221821 20 175 1.6 1.6 0.00 0.00 0.00 43 1013.7
20260508221316 20 340 1.6 1.6 0.00 0.00 0.00 44 1013.4
20260508220813 20 167 3.2 4.8 0.00 0.00 0.00 43 1013.7
20260508220309 20 143 0.0 0.0 0.00 0.00 0.00 46 1013.7
20260508215806 20 176 1.6 3.2 0.00 0.00 0.00 44 1013.5
20260508215306 20 236 1.6 1.6 0.00 0.00 0.00 45 1013.5
20260508214800 20 197 4.8 8.0 0.00 0.00 0.00 44 1013.7
20260508214257 20 131 1.6 1.6 0.00 0.00 0.00 44 1013.7
20260508213753 20 168 1.6 1.6 0.00 0.00 0.00 41 1013.6
20260508213250 20 117 0.0 0.0 0.00 0.00 0.00 40 1013.7
20260508212747 20 184 3.2 3.2 0.00 0.00 0.00 39 1013.9
20260508212243 20 182 1.6 1.6 0.00 0.00 0.00 41 1013.9
20260508211739 20 156 1.6 1.6 0.00 0.00 0.00 41 1013.9
20260508211235 20 125 0.0 1.6 0.00 0.00 0.00 43 1013.9
20260508210732 20 156 1.6 1.6 0.00 0.00 0.00 41 1013.7
20260508210229 20 177 3.2 3.2 0.00 0.00 0.00 39 1013.7
20260508205726 20 162 0.0 1.6 0.00 0.00 0.00 41 1013.6
20260508205222 20 137 0.0 0.0 0.00 0.00 0.00 40 1013.7
20260508204718 20 0 1.6 3.2 0.00 0.00 0.00 37 1013.7
20260508204215 20 145 1.6 1.6 0.00 0.00 0.00 37 1013.9
20260508203711 20 184 3.2 4.8 0.00 0.00 0.00 39 1014.2
20260508203208 20 80 0.0 0.0 0.00 0.00 0.00 38 1013.6
20260508202704 20 17 1.6 1.6 0.00 0.00 0.00 38 1013.6
20260508202201 20 112 0.0 0.0 0.00 0.00 0.00 38 1013.8
20260508201658 20 160 1.6 3.2 0.00 0.00 0.00 39 1014.0
20260508201154 20 175 3.2 3.2 0.00 0.00 0.00 40 1013.9
20260508200651 20 117 0.0 1.6 0.00 0.00 0.00 41 1013.9
20260508200147 20 57 0.0 0.0 0.00 0.00 0.00 36 1014.2
20260508195644 20 126 1.6 1.6 0.00 0.00 0.00 36 1014.3
20260508195141 20 166 1.6 1.6 0.00 0.00 0.00 39 1014.2
20260508194637 20 76 0.0 1.6 0.00 0.00 0.00 40 1014.5
20260508194134 20 84 1.6 1.6 0.00 0.00 0.00 41 1014.5
20260508193631 20 155 3.2 3.2 0.00 0.00 0.00 40 1014.7
20260508193128 19 112 1.6 1.6 0.00 0.00 0.00 37 1014.8
20260508192624 20 193 4.8 4.8 0.00 0.00 0.00 37 1015.1
20260508192121 20 187 4.8 4.8 0.00 0.00 0.00 38 1015.1
20260508191618 20 163 1.6 3.2 0.00 0.00 0.00 41 1015.3
20260508191115 20 139 1.6 1.6 0.00 0.00 0.00 40 1015.5
20260508190613 20 181 3.2 3.2 0.00 0.00 0.00 40 1015.7
20260508190109 20 190 4.8 4.8 0.00 0.00 0.00 36 1015.7
20260508185606 20 151 1.6 1.6 0.00 0.00 0.00 44 1015.7
20260508185103 20 89 4.8 8.0 0.00 0.00 0.00 42 1015.3
20260508184600 20 34 1.6 1.6 0.00 0.00 0.00 43 1015.5
20260508184057 20 28 3.2 3.2 0.00 0.00 0.00 43 1015.7
20260508183554 20 161 4.8 4.8 0.00 0.00 0.00 42 1015.4
20260508183050 20 87 0.0 0.0 0.00 0.00 0.00 38 1015.7
20260508182546 19 195 1.6 1.6 0.00 0.00 0.00 42 1015.7
20260508182043 19 282 1.6 1.6 0.00 0.00 0.00 40 1015.8
20260508181538 19 164 1.6 1.6 0.00 0.00 0.00 39 1015.8
20260508181036 19 181 0.0 0.0 0.00 0.00 0.00 39 1015.8
20260508180532 19 232 1.6 1.6 0.00 0.00 0.00 39 1016.1
20260508180029 19 187 3.2 3.2 0.00 0.00 0.00 38 1015.9
20260508175525 20 174 3.2 3.2 0.00 0.00 0.00 40 1016.0
20260508175023 20 61 1.6 1.6 0.00 0.00 0.00 36 1015.9
20260508174520 18 355 4.8 8.0 0.00 0.00 0.00 39 1016.1
20260508174017 18 179 1.6 3.2 0.00 0.00 0.00 39 1016.1
20260508173514 19 155 3.2 3.2 0.00 0.00 0.00 41 1015.9
20260508173010 20 126 0.0 0.0 0.00 0.00 0.00 39 1016.2
20260508172507 20 167 3.2 3.2 0.00 0.00 0.00 41 1016.3
20260508172004 20 34 1.6 3.2 0.00 0.00 0.00 39 1016.5
20260508171500 19 106 0.0 1.6 0.00 0.00 0.00 41 1016.6
20260508170956 19 130 0.0 0.0 0.00 0.00 0.00 43 1016.4
20260508170454 20 270 1.6 1.6 0.00 0.00 0.00 43 1016.5
20260508165951 18 161 1.6 1.6 0.00 0.00 0.00 45 1016.8
20260508165449 18 184 3.2 3.2 0.00 0.00 0.00 44 1016.8
20260508164944 18 184 1.6 3.2 0.00 0.00 0.00 44 1016.8
20260508164442 17 131 0.0 1.6 0.00 0.00 0.00 46 1017.1
20260508163938 18 92 0.0 1.6 0.00 0.00 0.00 46 1017.1
20260508163437 19 277 1.6 1.6 0.00 0.00 0.00 44 1017.4
20260508162932 18 82 1.6 1.6 0.00 0.00 0.00 44 1017.2
20260508162430 18 7 3.2 3.2 0.00 0.00 0.00 44 1017.5
20260508161926 18 51 1.6 1.6 0.00 0.00 0.00 47 1017.5
20260508161423 18 96 0.0 0.0 0.00 0.00 0.00 44 1017.7
20260508160921 17 62 1.6 3.2 0.00 0.00 0.00 43 1017.8
20260508160420 18 123 3.2 3.2 0.00 0.00 0.00 41 1017.9
20260508155915 18 106 3.2 3.2 0.00 0.00 0.00 44 1017.7
20260508155413 17 119 0.0 0.0 0.00 0.00 0.00 47 1017.8
20260508154909 17 144 3.2 3.2 0.00 0.00 0.00 46 1017.8
20260508154407 17 240 1.6 3.2 0.00 0.00 0.00 47 1018.0
20260508153903 17 64 1.6 3.2 0.00 0.00 0.00 44 1018.0
20260508153401 17 139 1.6 1.6 0.00 0.00 0.00 46 1018.2
20260508152856 17 161 6.4 8.0 0.00 0.00 0.00 46 1018.1
20260508152353 18 44 3.2 3.2 0.00 0.00 0.00 44 1018.1
20260508151849 17 89 0.0 0.0 0.00 0.00 0.00 48 1018.0
20260508151347 17 114 0.0 0.0 0.00 0.00 0.00 50 1018.1
20260508150843 16 168 3.2 3.2 0.00 0.00 0.00 47 1018.4
20260508150340 16 270 1.6 3.2 0.00 0.00 0.00 49 1018.3
20260508145836 17 84 0.0 0.0 0.00 0.00 0.00 48 1018.3
20260508145332 17 198 3.2 3.2 0.00 0.00 0.00 46 1018.2
20260508144829 17 148 0.0 1.6 0.00 0.00 0.00 50 1018.5
20260508144327 17 37 0.0 1.6 0.00 0.00 0.00 46 1018.5
20260508143824 16 47 1.6 1.6 0.00 0.00 0.00 50 1018.2
20260508143321 16 150 0.0 1.6 0.00 0.00 0.00 60 1018.5
20260508142818 16 92 0.0 1.6 0.00 0.00 0.00 59 1018.1
20260508142315 16 121 0.0 1.6 0.00 0.00 0.00 62 1018.3
20260508141811 16 157 1.6 3.2 0.00 0.00 0.00 66 1018.5
20260508141308 15 158 1.6 3.2 0.00 0.00 0.00 68 1018.8
20260508140806 15 168 1.6 3.2 0.00 0.00 0.00 67 1018.5
20260508140302 16 103 0.0 0.0 0.00 0.00 0.00 69 1018.6
20260508135758 15 73 0.0 0.0 0.00 0.00 0.00 69 1018.9
20260508135255 15 82 0.0 0.0 0.00 0.00 0.00 68 1018.6
20260508134750 15 80 1.6 3.2 0.00 0.00 0.00 67 1018.9
20260508134248 15 95 0.0 0.0 0.00 0.00 0.00 69 1018.8
20260508133744 14 93 0.0 0.0 0.00 0.00 0.00 72 1018.6
20260508133242 14 96 0.0 1.6 0.00 0.00 0.00 72 1018.6
20260508132739 15 100 0.0 1.6 0.00 0.00 0.00 69 1018.4
20260508132237 15 81 0.0 0.0 0.00 0.00 0.00 69 1018.4
20260508131732 14 107 1.6 1.6 0.00 0.00 0.00 73 1018.4
20260508131229 13 105 0.0 0.0 0.00 0.00 0.00 73 1018.4
20260508130725 13 105 0.0 0.0 0.00 0.00 0.00 75 1018.4
20260508130223 13 106 0.0 0.0 0.00 0.00 0.00 76 1018.5
20260508125718 13 95 0.0 0.0 0.00 0.00 0.00 78 1018.6
20260508125215 12 82 0.0 0.0 0.00 0.00 0.00 75 1018.5
20260508124713 12 51 3.2 3.2 0.00 0.00 0.00 73 1018.5
20260508124210 12 94 0.0 0.0 0.00 0.00 0.00 78 1018.4
20260508123708 11 48 1.6 1.6 0.00 0.00 0.00 82 1018.6
20260508123206 10 50 0.0 1.6 0.00 0.00 0.00 87 1018.8
20260508122702 9 82 0.0 0.0 0.00 0.00 0.00 91 1018.9
20260508122159 8 83 0.0 0.0 0.00 0.00 0.00 92 1018.8
20260508121656 8 87 0.0 0.0 0.00 0.00 0.00 95 1018.6
20260508121155 7 88 0.0 0.0 0.00 0.00 0.00 96 1018.6
20260508120652 7 88 0.0 0.0 0.00 0.00 0.00 96 1018.6
20260508120150 7 88 0.0 0.0 0.00 0.00 0.00 97 1018.3
20260508115648 6 88 0.0 0.0 0.00 0.00 0.00 97 1018.4
20260508115144 6 88 0.0 0.0 0.00 0.00 0.00 97 1018.2
20260508114641 6 89 0.0 0.0 0.00 0.00 0.00 97 1018.2
20260508114137 6 89 0.0 0.0 0.00 0.00 0.00 97 1018.2
20260508113634 6 90 0.0 0.0 0.00 0.00 0.00 97 1017.9
20260508113133 6 92 0.0 0.0 0.00 0.00 0.00 97 1017.9
20260508112628 6 96 0.0 0.0 0.00 0.00 0.00 97 1017.9
20260508112126 6 97 0.0 0.0 0.00 0.00 0.00 97 1017.9
20260508111622 5 97 0.0 0.0 0.00 0.00 0.00 97 1017.8
20260508111120 5 98 0.0 0.0 0.00 0.00 0.00 97 1017.7
20260508110618 5 88 0.0 0.0 0.00 0.00 0.00 97 1017.6
20260508110114 6 93 0.0 0.0 0.00 0.00 0.00 97 1017.8
20260508105614 5 97 0.0 0.0 0.00 0.00 0.00 97 1017.5
20260508105111 5 97 0.0 0.0 0.00 0.00 0.00 97 1017.3
20260508104609 6 98 0.0 0.0 0.00 0.00 0.00 96 1017.4
20260508104105 6 95 0.0 0.0 0.00 0.00 0.00 96 1017.3
20260508103603 6 96 0.0 0.0 0.00 0.00 0.00 96 1017.2
20260508103100 6 95 0.0 0.0 0.00 0.00 0.00 96 1017.2
20260508102557 6 95 0.0 0.0 0.00 0.00 0.00 96 1017.3
20260508102055 6 94 0.0 0.0 0.00 0.00 0.00 96 1017.0
20260508101552 6 94 0.0 0.0 0.00 0.00 0.00 95 1017.1
20260508101049 6 95 0.0 0.0 0.00 0.00 0.00 95 1017.0
20260508100547 6 95 0.0 0.0 0.00 0.00 0.00 94 1017.0
20260508100043 6 97 0.0 0.0 0.00 0.00 0.00 94 1016.9
20260508095541 6 94 0.0 0.0 0.00 0.00 0.00 93 1017.0
20260508095037 6 94 0.0 0.0 0.00 0.00 0.00 93 1017.0
20260508094535 7 92 0.0 0.0 0.00 0.00 0.00 92 1016.9
20260508094032 7 88 0.0 0.0 0.00 0.00 0.00 91 1017.0
20260508093528 7 89 0.0 0.0 0.00 0.00 0.00 91 1017.0
20260508093026 6 83 0.0 0.0 0.00 0.00 0.00 92 1017.0
20260508092523 6 83 0.0 0.0 0.00 0.00 0.00 92 1016.8
20260508092022 7 77 0.0 0.0 0.00 0.00 0.00 92 1016.8
20260508091519 7 87 0.0 0.0 0.00 0.00 0.00 92 1017.1
20260508091015 7 87 0.0 0.0 0.00 0.00 0.00 91 1016.7
20260508090514 7 87 0.0 0.0 0.00 0.00 0.00 90 1016.5
20260508090010 7 88 0.0 0.0 0.00 0.00 0.00 89 1016.9
20260508085507 7 88 0.0 0.0 0.00 0.00 0.00 88 1016.7
20260508085004 7 88 0.0 0.0 0.00 0.00 0.00 87 1016.8
20260508084501 7 88 0.0 0.0 0.00 0.00 0.00 86 1016.9
20260508083958 7 86 0.0 0.0 0.00 0.00 0.00 87 1016.7
20260508083455 7 87 0.0 0.0 0.00 0.00 0.00 88 1016.8
20260508082950 7 97 0.0 0.0 0.00 0.00 0.00 88 1016.7
20260508082447 7 98 0.0 0.0 0.00 0.00 0.00 87 1016.5
20260508081945 7 103 0.0 0.0 0.00 0.00 0.00 86 1016.6
20260508081442 8 90 0.0 0.0 0.00 0.00 0.00 86 1016.7
20260508080938 8 92 0.0 0.0 0.00 0.00 0.00 85 1016.7
20260508080436 8 90 0.0 0.0 0.00 0.00 0.00 85 1016.8
20260508075933 8 86 0.0 0.0 0.00 0.00 0.00 85 1016.9
20260508075430 8 68 0.0 0.0 0.00 0.00 0.00 85 1016.8
20260508074927 8 72 0.0 0.0 0.00 0.00 0.00 85 1016.8
20260508074425 8 66 0.0 0.0 0.00 0.00 0.00 87 1016.6
20260508073921 8 104 0.0 0.0 0.00 0.00 0.00 87 1016.7
20260508073419 8 104 0.0 0.0 0.00 0.00 0.00 83 1016.7
20260508072916 8 104 0.0 0.0 0.00 0.00 0.00 82 1016.7
20260508072412 8 104 0.0 1.6 0.00 0.00 0.00 84 1016.8
20260508071909 8 81 0.0 0.0 0.00 0.00 0.00 84 1016.7
20260508071408 8 61 0.0 0.0 0.00 0.00 0.00 85 1016.8
20260508070905 8 85 0.0 0.0 0.00 0.00 0.00 86 1016.6
20260508070403 8 86 0.0 0.0 0.00 0.00 0.00 86 1016.6
20260508065900 8 73 0.0 0.0 0.00 0.00 0.00 87 1016.7
20260508065358 8 83 0.0 0.0 0.00 0.00 0.00 92 1016.7
20260508064856 8 88 0.0 0.0 0.00 0.00 0.00 91 1016.9
20260508064353 8 87 0.0 0.0 0.00 0.00 0.00 90 1016.9
20260508063851 8 87 0.0 0.0 0.00 0.00 0.00 89 1016.6
20260508063348 8 85 0.0 0.0 0.00 0.00 0.00 88 1016.9
20260508062845 8 86 0.0 0.0 0.00 0.00 0.00 89 1016.5
20260508062343 8 85 0.0 0.0 0.00 0.00 0.00 89 1016.7
20260508061840 8 95 0.0 0.0 0.00 0.00 0.00 88 1016.6
20260508061337 9 89 0.0 0.0 0.00 0.00 0.00 89 1016.6
20260508060833 9 86 0.0 0.0 0.00 0.00 0.00 85 1016.8
20260508060331 9 65 1.6 1.6 0.00 0.00 0.00 85 1016.8
20260508055826 9 54 0.0 0.0 0.00 0.00 0.00 86 1016.8
20260508055324 8 60 1.6 3.2 0.00 0.00 0.00 90 1016.5
20260508054820 8 85 0.0 0.0 0.00 0.00 0.00 92 1016.5
20260508054318 9 98 0.0 0.0 0.00 0.00 0.00 92 1016.8
20260508053815 8 103 0.0 0.0 0.00 0.00 0.00 89 1016.5
20260508053312 9 106 0.0 0.0 0.00 0.00 0.00 90 1016.5
20260508052809 9 102 0.0 0.0 0.00 0.00 0.00 89 1016.5
20260508052307 9 59 0.0 1.6 0.00 0.00 0.00 90 1016.7
20260508051802 9 37 1.6 1.6 0.00 0.00 0.00 90 1016.7
20260508051258 9 67 0.0 1.6 0.00 0.00 0.00 90 1016.8
20260508050755 9 74 0.0 0.0 0.00 0.00 0.00 89 1016.8
20260508050252 9 89 0.0 1.6 0.00 0.00 0.00 89 1016.7
20260508045747 10 79 0.0 0.0 0.00 0.00 0.00 89 1016.7
20260508045245 10 63 0.0 0.0 0.00 0.00 0.00 88 1016.8
20260508044743 10 77 0.0 0.0 0.00 0.00 0.00 87 1016.7
20260508044240 10 66 0.0 1.6 0.00 0.00 0.00 88 1016.7
20260508043735 10 74 0.0 0.0 0.00 0.00 0.00 88 1016.5
20260508043233 10 83 0.0 0.0 0.00 0.00 0.00 88 1016.5
20260508042729 10 74 0.0 0.0 0.00 0.00 0.00 88 1016.3
20260508042227 10 75 0.0 0.0 0.00 0.00 0.00 88 1016.5
20260508041723 10 66 0.0 1.6 0.00 0.00 0.00 90 1016.4
20260508041220 10 95 0.0 0.0 0.00 0.00 0.00 91 1016.5
20260508040717 10 77 0.0 0.0 0.00 0.00 0.00 91 1016.4
20260508040214 10 85 0.0 0.0 0.00 0.00 0.00 91 1016.5
20260508035711 10 76 0.0 0.0 0.00 0.41 0.41 90 1016.4
20260508035209 10 78 0.0 0.0 0.00 0.41 0.41 90 1016.4
20260508034705 10 82 0.0 0.0 0.00 0.41 0.41 89 1016.3
20260508034202 10 86 0.0 0.0 0.00 0.41 0.41 88 1016.4
20260508033659 10 86 0.0 0.0 0.00 0.41 0.41 88 1016.3
20260508033158 10 63 0.0 0.0 0.00 0.41 0.41 87 1016.2
20260508032654 11 85 0.0 0.0 0.00 0.41 0.41 87 1016.3
20260508032152 11 83 0.0 0.0 0.00 0.41 0.41 87 1016.4
20260508031649 11 63 0.0 1.6 0.00 0.41 0.41 87 1016.1
20260508031145 11 76 0.0 0.0 0.00 0.41 0.41 87 1016.5
20260508030641 11 71 0.0 0.0 0.00 0.41 0.41 86 1016.3
20260508030139 11 81 0.0 1.6 0.00 0.41 0.41 86 1016.4
20260508025635 11 99 0.0 0.0 0.00 0.41 0.41 86 1016.3
20260508025132 11 75 0.0 0.0 0.00 0.41 0.41 85 1016.3
20260508024628 11 85 0.0 0.0 0.00 0.41 0.41 85 1016.4
20260508024126 11 96 0.0 0.0 0.00 0.41 0.41 85 1016.4
20260508023621 12 96 0.0 0.0 0.00 0.41 0.41 84 1016.4
20260508023119 12 89 0.0 0.0 0.00 0.41 0.41 84 1016.7
20260508022615 12 89 0.0 0.0 0.00 0.41 0.41 82 1016.3
20260508022112 12 60 0.0 1.6 0.00 0.41 0.41 82 1016.3
20260508021608 12 83 0.0 0.0 0.00 0.41 0.41 83 1016.3
20260508021104 12 90 0.0 0.0 0.00 0.41 0.41 81 1016.2
20260508020602 12 90 0.0 0.0 0.00 0.41 0.41 82 1016.2
20260508020059 12 95 0.0 0.0 0.00 0.41 0.41 82 1016.1
20260508015557 12 83 0.0 0.0 0.00 0.41 0.41 82 1015.8
20260508015053 12 87 0.0 0.0 0.00 0.41 0.41 82 1015.7
20260508014549 12 88 0.0 0.0 0.00 0.41 0.41 82 1015.4
20260508014046 12 83 0.0 0.0 0.00 0.41 0.41 82 1015.4
20260508013542 12 98 0.0 0.0 0.00 0.41 0.41 82 1015.4
20260508013039 13 97 0.0 0.0 0.00 0.41 0.41 81 1015.3
20260508012536 12 76 0.0 0.0 0.00 0.41 0.41 82 1014.9
20260508012034 13 100 0.0 0.0 0.00 0.41 0.41 81 1015.0